sat.trackr.live / text

‹ back to catalog

STARLINK-31774

NORAD 59622 · 2024-080X

PAYLOAD ACTIVE UNKNOWN

§ Identity

Operator
Country
US
Launch date
2024-04-28
Launch site
AFETR
Launch vehicle
Mass (kg)
RCS (m²)

Purposes: comms

External: N2YO · Heavens-Above · Gunter

§ Orbital elements

Epoch: 2026-09-21T14:28:29.668224Z

Period
94.27 min
Inclination
43.0034°
Eccentricity
0.0001195
Mean motion
15.27581125 rev/d
Perigee alt
482.2 km
Apogee alt
483.9 km
Semi-major
6,861.2 km
B*
2.1785e-5
RAAN
8.1542°
Arg perigee
269.5558°
Mean anomaly
90.5157°
Rev number
13,453

§ Raw data

STARLINK-317741 59622U 24080X   26264.60312116  .00000337  00000+0  21785-4 0  99972 59622  43.0034   8.1542 0001195 269.5558  90.5157 15.27581125134536

JSON: /api/v1/satellites/59622 · /tle

For live sub-satellite position, see the globe view (requires WebGL).

§ Visibility from observer

Set your observer location to see the next 7 days of passes ≥ 10°. The values pass through the URL so the page stays shareable.

No JS? Fill the form by hand. The geolocation button needs JavaScript.